When you browse on this site, cookies collect data to enhance your experience and personalize the content and advertising you see.
Visit our Privacy Policy to learn more. By continuing to use the site, you agree to this use of cookies and data.
  • In United Kingdom
  • List of Countries
  • For 7 days
  • Water Temperature
  • Weather Map
  • Weather Widgets
  • user-avatar
    Login

    Hourly Weather Nottingham

    Today, 7 April, Tuesday

    Time Temperature Precipitation Wind Pressure Humidity
    00:00 +7°C° 0 mm 1 mps 764 mmHg 78%
    01:00 +5°C° 0 mm 0 mps 765 mmHg 78%
    02:00 +5°C° 0 mm 0 mps 765 mmHg 79%
    03:00 +5°C° 0 mm 0 mps 765 mmHg 79%
    04:00 +5°C° 0 mm 0 mps 766 mmHg 79%
    05:00 +5°C° 0 mm 0 mps 766 mmHg 79%
    06:00 +6°C° 0 mm 1 mps 766 mmHg 81%
    07:00 +8°C° 0 mm 1 mps 766 mmHg 77%
    08:00 +9°C° 0 mm 2 mps 767 mmHg 73%
    09:00 +12°C° 0 mm 2 mps 767 mmHg 70%
    10:00 +12°C° 0 mm 3 mps 766 mmHg 66%
    11:00 +14°C° 0 mm 3 mps 766 mmHg 63%
    12:00 +16°C° 0 mm 3 mps 766 mmHg 60%
    13:00 +15°C° 0 mm 4 mps 766 mmHg 61%
    14:00 +15°C° 0 mm 4 mps 765 mmHg 63%
    15:00 +15°C° 0 mm 4 mps 765 mmHg 64%
    16:00 +16°C° 0 mm 3 mps 765 mmHg 67%
    17:00 +14°C° 0 mm 3 mps 765 mmHg 71%
    18:00 +14°C° 0 mm 2 mps 765 mmHg 74%
    19:00 +13°C° 0 mm 2 mps 765 mmHg 77%
    20:00 +12°C° 0 mm 2 mps 765 mmHg 80%
    21:00 +10°C° 0 mm 2 mps 765 mmHg 82%
    22:00 +9°C° 0 mm 2 mps 765 mmHg 83%
    23:00 +10°C° 0 mm 1 mps 765 mmHg 84%

    Tomorrow, 8 April, Wednesday

    Time Temperature Precipitation Wind Pressure Humidity
    00:00 +10°C° 0 mm 1 mps 765 mmHg 85%
    01:00 +10°C° 0 mm 1 mps 764 mmHg 84%
    02:00 +10°C° 0 mm 1 mps 764 mmHg 83%
    03:00 +10°C° 0 mm 1 mps 763 mmHg 82%
    04:00 +9°C° 0 mm 0 mps 763 mmHg 82%
    05:00 +9°C° 0 mm 0 mps 763 mmHg 82%
    06:00 +9°C° 0 mm 0 mps 763 mmHg 83%
    07:00 +10°C° 0 mm 0 mps 763 mmHg 80%
    08:00 +11°C° 0 mm 0 mps 763 mmHg 78%
    09:00 +12°C° 0 mm 0 mps 763 mmHg 75%
    10:00 +13°C° 0 mm 0 mps 763 mmHg 72%
    11:00 +15°C° 0 mm 1 mps 763 mmHg 70%
    12:00 +16°C° 0 mm 1 mps 763 mmHg 67%
    13:00 +18°C° 0 mm 1 mps 762 mmHg 65%
    14:00 +17°C° 0 mm 0 mps 762 mmHg 63%
    15:00 +18°C° 0 mm 0 mps 762 mmHg 60%
    16:00 +19°C° 0 mm 1 mps 762 mmHg 65%
    17:00 +18°C° 0 mm 1 mps 762 mmHg 70%
    18:00 +16°C° 0 mm 1 mps 761 mmHg 75%
    19:00 +15°C° 0 mm 1 mps 762 mmHg 78%
    20:00 +14°C° 0 mm 1 mps 762 mmHg 81%
    21:00 +12°C° 0 mm 1 mps 762 mmHg 84%
    22:00 +12°C° 0 mm 1 mps 763 mmHg 85%
    23:00 +12°C° 0 mm 1 mps 763 mmHg 86%

    Day after tomorrow, 9 April, Thursday

    Time Temperature Precipitation Wind Pressure Humidity
    00:00 +11°C° 0 mm 1 mps 763 mmHg 87%
    01:00 +11°C° 0 mm 1 mps 763 mmHg 88%
    02:00 +11°C° 0 mm 1 mps 763 mmHg 89%
    03:00 +10°C° 0 mm 1 mps 762 mmHg 90%
    04:00 +9°C° 0 mm 2 mps 763 mmHg 91%
    05:00 +9°C° 0 mm 2 mps 763 mmHg 91%
    06:00 +9°C° 0 mm 2 mps 763 mmHg 92%
    07:00 +10°C° 0 mm 2 mps 763 mmHg 89%
    08:00 +11°C° 0 mm 3 mps 763 mmHg 85%
    09:00 +13°C° 0 mm 3 mps 764 mmHg 81%
    10:00 +14°C° 0 mm 3 mps 764 mmHg 78%
    11:00 +16°C° 0 mm 3 mps 764 mmHg 75%
    12:00 +17°C° 0 mm 3 mps 764 mmHg 72%
    13:00 +17°C° 0 mm 3 mps 763 mmHg 73%
    14:00 +17°C° 0 mm 3 mps 763 mmHg 73%
    15:00 +18°C° 0 mm 3 mps 763 mmHg 74%
    16:00 +17°C° 0 mm 3 mps 763 mmHg 77%
    17:00 +16°C° 0 mm 3 mps 763 mmHg 80%
    18:00 +14°C° 0 mm 3 mps 763 mmHg 83%
    19:00 +13°C° 0 mm 3 mps 763 mmHg 85%
    20:00 +12°C° 0 mm 3 mps 763 mmHg 87%
    21:00 +11°C° 0 mm 3 mps 764 mmHg 89%
    22:00 +10°C° 0 mm 3 mps 764 mmHg 88%
    23:00 +10°C° 0 mm 3 mps 764 mmHg 87%

    10 April, Friday

    Time Temperature Precipitation Wind Pressure Humidity
    00:00 +10°C° 0 mm 2 mps 764 mmHg 85%
    01:00 +9°C° 0 mm 2 mps 763 mmHg 86%
    02:00 +9°C° 0 mm 2 mps 763 mmHg 87%
    03:00 +8°C° 0 mm 2 mps 763 mmHg 88%
    04:00 +8°C° 0 mm 2 mps 763 mmHg 89%
    05:00 +9°C° 0 mm 1 mps 763 mmHg 90%
    06:00 +9°C° 0 mm 1 mps 763 mmHg 91%
    07:00 +10°C° 0 mm 1 mps 763 mmHg 86%
    08:00 +12°C° 0 mm 1 mps 762 mmHg 82%
    09:00 +14°C° 0 mm 2 mps 762 mmHg 78%
    10:00 +15°C° 0 mm 2 mps 762 mmHg 75%
    11:00 +17°C° 0 mm 2 mps 762 mmHg 72%
    12:00 +19°C° 0 mm 2 mps 761 mmHg 69%
    13:00 +19°C° 0.2 mm 3 mps 761 mmHg 68%
    14:00 +20°C° 0.2 mm 3 mps 761 mmHg 67%
    15:00 +20°C° 0.2 mm 3 mps 760 mmHg 66%
    16:00 +19°C° 0.3 mm 3 mps 760 mmHg 71%
    17:00 +18°C° 0.3 mm 3 mps 760 mmHg 76%
    18:00 +17°C° 0.3 mm 3 mps 760 mmHg 81%
    19:00 +16°C° 0 mm 2 mps 760 mmHg 83%
    20:00 +15°C° 0 mm 2 mps 760 mmHg 86%
    21:00 +14°C° 0 mm 2 mps 760 mmHg 88%
    22:00 +14°C° 0 mm 2 mps 760 mmHg 89%
    23:00 +13°C° 0 mm 2 mps 760 mmHg 90%

    11 April, Saturday

    Time Temperature Precipitation Wind Pressure Humidity
    00:00 +13°C° 0 mm 2 mps 760 mmHg 90%
    01:00 +12°C° 0 mm 2 mps 760 mmHg 91%
    02:00 +12°C° 0 mm 2 mps 760 mmHg 91%
    03:00 +10°C° 0 mm 2 mps 759 mmHg 92%
    04:00 +10°C° 0 mm 2 mps 759 mmHg 92%
    05:00 +10°C° 0 mm 2 mps 759 mmHg 92%
    06:00 +10°C° 0 mm 3 mps 759 mmHg 91%
    07:00 +10°C° 0 mm 3 mps 760 mmHg 90%
    08:00 +11°C° 0 mm 3 mps 760 mmHg 88%
    09:00 +12°C° 0 mm 3 mps 760 mmHg 87%
    10:00 +14°C° 0 mm 4 mps 760 mmHg 81%
    11:00 +15°C° 0 mm 4 mps 760 mmHg 75%
    12:00 +16°C° 0 mm 5 mps 760 mmHg 70%
    13:00 +15°C° 0 mm 5 mps 760 mmHg 67%
    14:00 +15°C° 0 mm 5 mps 760 mmHg 65%
    15:00 +15°C° 0 mm 5 mps 760 mmHg 63%
    16:00 +14°C° 0 mm 5 mps 760 mmHg 67%
    17:00 +13°C° 0 mm 4 mps 760 mmHg 71%
    18:00 +12°C° 0 mm 3 mps 760 mmHg 75%
    19:00 +10°C° 0 mm 3 mps 760 mmHg 78%
    20:00 +8°C° 0 mm 3 mps 760 mmHg 81%
    21:00 +7°C° 0 mm 2 mps 760 mmHg 85%
    22:00 +6°C° 0 mm 2 mps 760 mmHg 86%
    23:00 +6°C° 0 mm 2 mps 760 mmHg 88%

    12 April, Sunday

    Time Temperature Precipitation Wind Pressure Humidity
    00:00 +6°C° 0 mm 2 mps 760 mmHg 90%
    01:00 +5°C° 0 mm 2 mps 759 mmHg 91%
    02:00 +5°C° 0 mm 2 mps 759 mmHg 92%
    03:00 +5°C° 0 mm 2 mps 758 mmHg 92%
    04:00 +6°C° 0 mm 1 mps 758 mmHg 92%
    05:00 +6°C° 0 mm 1 mps 757 mmHg 92%
    06:00 +6°C° 0 mm 1 mps 757 mmHg 92%
    07:00 +8°C° 0 mm 1 mps 756 mmHg 86%
    08:00 +10°C° 0 mm 1 mps 756 mmHg 80%
    09:00 +11°C° 0 mm 0 mps 756 mmHg 73%
    10:00 +12°C° 0 mm 0 mps 755 mmHg 69%
    11:00 +14°C° 0 mm 1 mps 755 mmHg 65%
    12:00 +15°C° 0 mm 1 mps 755 mmHg 61%
    13:00 +15°C° 0 mm 1 mps 755 mmHg 65%
    14:00 +14°C° 0 mm 2 mps 755 mmHg 69%
    15:00 +13°C° 0 mm 3 mps 754 mmHg 73%
    16:00 +12°C° 0 mm 4 mps 755 mmHg 76%
    17:00 +10°C° 0 mm 5 mps 755 mmHg 79%
    18:00 +10°C° 0 mm 6 mps 755 mmHg 81%
    19:00 +9°C° 0 mm 7 mps 756 mmHg 81%
    20:00 +8°C° 0 mm 7 mps 757 mmHg 81%
    21:00 +6°C° 0 mm 7 mps 758 mmHg 81%
    22:00 +6°C° 0 mm 7 mps 759 mmHg 80%
    23:00 +6°C° 0 mm 7 mps 760 mmHg 80%
    Show more